Content
SEND FEEDBACK

Daily
Averages
Monthly
Summary
United States of America

DEDEDO, GUAM


Home > North America > United States > Guam
Elevation: 364 feet     Latitude: 13 33N     Longitude: 144 49E

WEATHER
 
SELECT A DAY
Number of Records: 208,807;   Date Range: 1/1/95 - 7/7/14
 
SHARE

PRINT THIS DATA

[ ← Previous Day ]
WEATHER ALMANAC - NOVEMBER 8, 2013
[ Next Day → ]
[ °C ]   °F
Weather ElementAverageHighLow
Temperature82.6 °F88 °F (2:54 pm)78.1 °F (1:54 am)
Dewpoint76 °F78.1 °F (7:54 pm)75 °F (1:54 am)
Humidity80.9 %93 % (2:54 am)66 % (3:16 pm)
Barometer29.87 in29.93 in (8:54 am)29.81 in (2:54 pm)
Wind Speed14.6 mph23 mph (12:12 pm)
Wind Gust31.1 mph (11:54 am)
Weather ElementAverage
Visibility9.9 mi
Wind DirectionNE (47.4 °)

Weather ElementTotal
Precipitation---
Cooling Degree Days18.1 (Base 65)
Growing Degree Days33.1 (Base 50)
Averaged from 27 records on November 8, 2013
WEATHER CONDITIONS BREAKOUT
WIND DIRECTION BREAKOUT
WEATHER BY HOUR - NOVEMBER 8, 2013
[ °C ]   °F
Local TimeTemperatureDewpointHumidityBarometerVisibilityWind DirectionWind SpeedGust SpeedPrecipitationEventsConditions
1:54 AM78.1 °F75.0 °F90 %29.87 in10.0 miNE (40°)3.5 mphClear
2:54 AM78.1 °F75.9 °F93 %29.86 in10.0 miNE (40°)6.9 mphClear
3:54 AM78.1 °F75.9 °F93 %29.86 in10.0 miNNE (30°)5.8 mphPartly Cloudy
4:54 AM79.0 °F75.9 °F90 %29.86 in10.0 miNE (50°)9.2 mphClear
5:54 AM78.1 °F75.9 °F93 %29.88 in10.0 miNorth (10°)6.9 mphPartly Cloudy
6:54 AM78.1 °F75.9 °F93 %29.89 in6.0 miNNE (20°)9.2 mph0.00 inRainLight Rain
7:54 AM80.1 °F77.0 °F90 %29.91 in10.0 miNE (40°)9.2 mph0.00 inOvercast
8:54 AM80.1 °F75.9 °F87 %29.93 in10.0 miNNE (30°)12.7 mph0.00 inPartly Cloudy
9:54 AM81.0 °F75.9 °F85 %29.90 in10.0 miNE (40°)13.8 mphPartly Cloudy
10:54 AM84.9 °F75.9 °F74 %29.90 in10.0 miNE (40°)18.4 mph24.2 mphClear
11:54 AM87.1 °F75.9 °F69 %29.87 in10.0 miNE (40°)21.9 mph31.1 mphScattered Clouds
12:12 PM86.0 °F75.2 °F70 %29.89 in10.0 miNE (40°)23.0 mph27.6 mphMostly Cloudy
12:46 PM86.0 °F75.2 °F70 %29.88 in10.0 miNE (40°)19.6 mphScattered Clouds
12:54 PM87.1 °F75.9 °F69 %29.85 in10.0 miENE (60°)21.9 mph26.5 mphScattered Clouds
1:54 PM87.1 °F75.9 °F69 %29.83 in10.0 miNE (50°)21.9 mphPartly Cloudy
2:54 PM88.0 °F75.9 °F67 %29.81 in10.0 miNE (50°)18.4 mphScattered Clouds
3:04 PM86.0 °F75.2 °F70 %29.83 in10.0 miNE (50°)17.3 mph28.8 mphMostly Cloudy
3:16 PM87.8 °F75.2 °F66 %29.84 in10.0 miNE (50°)19.6 mph29.9 mphScattered Clouds
3:54 PM86.0 °F75.9 °F72 %29.82 in10.0 miENE (60°)16.1 mph27.6 mphScattered Clouds
4:54 PM84.9 °F75.9 °F74 %29.82 in10.0 miENE (70°)17.3 mphScattered Clouds
5:54 PM82.9 °F75.9 °F79 %29.83 in10.0 miENE (60°)12.7 mphPartly Cloudy
6:54 PM82.0 °F77.0 °F85 %29.86 in10.0 miENE (60°)16.1 mph24.2 mph0.00 inRainLight Rain
7:54 PM81.0 °F78.1 °F91 %29.88 in10.0 miENE (70°)15.0 mph24.2 mph0.00 inScattered Clouds
8:54 PM81.0 °F77.0 °F88 %29.90 in10.0 miENE (60°)12.7 mphPartly Cloudy
9:54 PM81.0 °F75.9 °F85 %29.89 in10.0 miENE (60°)15.0 mphPartly Cloudy
10:54 PM81.0 °F77.0 °F88 %29.88 in10.0 miENE (60°)13.8 mph0.00 inScattered Clouds
11:54 PM81.0 °F75.9 °F85 %29.87 in10.0 miENE (60°)15.0 mphPartly Cloudy
Hourly data recorded from PGUM, located miles away from Dededo, Guam







STORIES FROM OUR PARTNERS